Change the Weather History Date:

Sunday, January 8, 2012

  Actual Average Record
Temperature  
Mean Temperature 58 °F 46 °F  
Max Temperature 71 °F 57 °F 76 °F (1946)
Min Temperature 44 °F 35 °F 12 °F (2014)
Degree Days  
Heating Degree Days 7 19  
Month to date heating degree days 142 152  
Since 1 July heating degree days 997 1077  
Cooling Degree Days 0 0  
Month to date cooling degree days 0 0  
Year to date cooling degree days 0 0  
Growing Degree Days 7 (Base 50)    
Moisture  
Dew Point 51 °F    
Average Humidity 81    
Maximum Humidity 100    
Minimum Humidity 61    
Precipitation  
Precipitation T in 0.13 in 2.15 in (1964)
Month to date precipitation T 1.03  
Year to date precipitation T 1.03  
Snow  
Snow 0.00 in 0.00 in 0.00 in (2002)
Month to date snowfall 0.0 0.1  
Since 1 July snowfall 0.0 0.2  
Snow Depth -    
Sea Level Pressure  
Sea Level Pressure 30.19 in    
Wind  
Wind Speed 2 mph (SW)    
Max Wind Speed 10 mph    
Max Gust Speed 13 mph    
Visibility 6 miles    
Events Fog    
T = Trace of Precipitation, MM = Missing Value Source: NWS Daily Summary

Daily Weather History Graph

Daily Weather History Graph

Search for Another Location

Airport or City:

Trip Planner

Search our weather history database for the weather conditions in past years. The results will help you decide how hot, cold, wet, or windy it might be!

Date:

Astronomy

Jan. 08, 2012 Rise Set
Actual Time 7:37 AM EST 5:44 PM EST
Civil Twilight 7:10 AM EST 6:11 PM EST
Nautical Twilight 6:40 AM EST 6:42 PM EST
Astronomical Twilight 6:10 AM EST 7:12 PM EST
Moon 5:26 PM EST (1/8) 6:55 AM EST (1/8)
Length of Visible Light 11h 01m
Length of Day
10h 07m
Full, 100% of the Moon is Illuminated
Jan 8
Full
Jan 9
Full
Jan 16
Last Quarter
Jan 23
New
Jan 30
First Quarter

Hourly Weather History & Observations

Time (EST) Temp. Dew Point Humidity Pressure Visibility Wind Dir Wind Speed Gust Speed Precip Events Conditions
12:53 AM 50.0 °F 48.0 °F 93% 30.14 in 10.0 mi Calm Calm - N/A   Overcast
1:53 AM 50.0 °F 48.0 °F 93% 30.15 in 10.0 mi Calm Calm - N/A   Overcast
2:53 AM 51.1 °F 48.9 °F 92% 30.16 in 10.0 mi Calm Calm - N/A   Overcast
3:53 AM 48.9 °F 48.9 °F 100% 30.15 in 10.0 mi Calm Calm - 0.00 in   Mostly Cloudy
4:49 AM 48.2 °F 46.4 °F 93% 30.15 in 1.8 mi Calm Calm - N/A   Clear
4:53 AM 48.2 °F 46.4 °F 93% 30.16 in 1.0 mi SSE 3.5 mph - N/A   Clear
5:02 AM 46.4 °F 46.4 °F 100% 30.16 in 3.0 mi Calm Calm - N/A   Clear
5:25 AM 46.4 °F 46.4 °F 100% 30.17 in 1.8 mi Calm Calm - N/A   Clear
5:53 AM 46.9 °F 46.0 °F 97% 30.17 in 0.5 mi Calm Calm - N/A Fog Fog
6:06 AM 46.4 °F 46.4 °F 100% 30.18 in 1.0 mi Calm Calm - N/A   Partly Cloudy
6:14 AM 46.4 °F 46.4 °F 100% 30.18 in 0.5 mi Calm Calm - N/A Fog Fog
6:19 AM 46.4 °F 46.4 °F 100% 30.18 in 0.2 mi Calm Calm - N/A Fog Fog
6:37 AM 46.4 °F 46.4 °F 100% 30.18 in 0.5 mi Calm Calm - N/A Fog Fog
6:53 AM 46.9 °F 46.0 °F 97% 30.18 in 0.8 mi Calm Calm - N/A   Scattered Clouds
7:06 AM 46.4 °F 46.4 °F 100% 30.18 in 0.2 mi Calm Calm - N/A Fog Fog
7:17 AM 44.6 °F 44.6 °F 100% 30.19 in 0.5 mi Calm Calm - N/A Fog Fog
7:31 AM 46.4 °F 44.6 °F 93% 30.19 in 0.5 mi Calm Calm - N/A Fog Fog
7:40 AM 44.6 °F 44.6 °F 100% 30.19 in 0.2 mi Calm Calm - N/A Fog Fog
7:53 AM 44.1 °F 44.1 °F 100% 30.20 in 0.2 mi Calm Calm - N/A Fog Fog
7:59 AM 46.4 °F 44.6 °F 93% 30.20 in 1.0 mi Calm Calm - N/A   Overcast
8:06 AM 46.4 °F 46.4 °F 100% 30.21 in 1.0 mi Calm Calm - N/A   Overcast
8:53 AM 50.0 °F 50.0 °F 100% 30.22 in 4.0 mi Calm Calm - N/A   Overcast
9:02 AM 51.8 °F 51.8 °F 100% 30.22 in 5.0 mi Calm Calm - N/A   Mostly Cloudy
9:17 AM 53.6 °F 53.6 °F 100% 30.22 in 4.0 mi Calm Calm - N/A   Scattered Clouds
9:53 AM 55.9 °F 54.0 °F 93% 30.23 in 7.0 mi Calm Calm - N/A   Scattered Clouds
10:53 AM 64.0 °F 55.0 °F 73% 30.24 in 10.0 mi WNW 3.5 mph - N/A   Scattered Clouds
11:12 AM 64.4 °F 55.4 °F 73% 30.24 in 10.0 mi Calm Calm - N/A   Overcast
11:38 AM 66.2 °F 57.2 °F 73% 30.23 in 10.0 mi Variable 3.5 mph - N/A   Overcast
11:53 AM 66.0 °F 57.0 °F 73% 30.22 in 10.0 mi West 4.6 mph - N/A   Overcast
12:53 PM 68.0 °F 57.9 °F 70% 30.19 in 10.0 mi WSW 8.1 mph - N/A   Overcast
1:53 PM 68.0 °F 57.0 °F 68% 30.16 in 10.0 mi Variable 4.6 mph - N/A   Scattered Clouds
2:53 PM 70.0 °F 55.0 °F 59% 30.16 in 10.0 mi WSW 9.2 mph - N/A   Partly Cloudy
3:53 PM 69.1 °F 55.0 °F 61% 30.16 in 10.0 mi SW 9.2 mph - N/A   Mostly Cloudy
4:53 PM 68.0 °F 55.0 °F 63% 30.16 in 10.0 mi Calm Calm - N/A   Overcast
5:53 PM 66.0 °F 55.9 °F 70% 30.17 in 10.0 mi Calm Calm - N/A   Overcast
6:53 PM 60.1 °F 55.0 °F 83% 30.18 in 10.0 mi SE 3.5 mph - N/A   Clear
7:53 PM 57.0 °F 55.0 °F 93% 30.20 in 10.0 mi Calm Calm - N/A   Clear
8:53 PM 57.0 °F 55.9 °F 96% 30.19 in 10.0 mi Calm Calm - N/A   Overcast
9:53 PM 57.0 °F 55.0 °F 93% 30.20 in 10.0 mi Calm Calm - N/A   Overcast
10:53 PM 57.9 °F 55.0 °F 90% 30.19 in 10.0 mi Calm Calm - N/A   Overcast
11:53 PM 57.0 °F 54.0 °F 89% 30.18 in 10.0 mi Calm Calm - N/A   Overcast